Tracking 29892 objects as of 21-Nov-2024
HD Live streaming from Space Station
objects crossing your sky now

DMSP 5D-2 F14 (USA 131)

Track DMSP 5D-2 F14 (USA 131) now!
10-day predictions
DMSP 5D-2 F14 (USA 131) is classified as:


NORAD ID: 24753
Int'l Code: 1997-012A
Perigee: 839.1 km
Apogee: 850.3 km
Inclination: 98.8 °
Period: 101.7 minutes
Semi major axis: 7215 km
RCS: Unknown
Launch date: April 4, 1997
Source: United States (US)
Launch site: AIR FORCE WESTERN TEST RANGE (AFWTR)

Near-polar orbits; investigate Earth's environment.
Your satellite tracking list
Your tracking list is empty




NASA's NSSDC Master Catalog

Two Line Element Set (TLE):
1 24753U 97012A   24326.08996595  .00000335  00000-0  19078-3 0  9997
2 24753  98.8405  10.0095 0007707 290.3441  69.6905 14.16395120427400
Source of the keplerian elements: McCants